When you browse on this site, cookies collect data to enhance your experience and personalize the content and advertising you see.
Visit our Privacy Policy to learn more. By continuing to use the site, you agree to this use of cookies and data.
  • In Spain
  • List of Countries
  • For 7 days
  • Water Temperature
  • Satellite Maps
  • Weather Map
  • Weather Widgets
  • user-avatar
    Login

    Hourly Weather San Juan

    Today, 17 December, Monday

    Time Temperature Precipitation Wind Pressure Humidity
    00:00 +31°C° 0 mm 2 mps 703 mmHg 38%
    01:00 +30°C° 0 mm 2 mps 703 mmHg 44%
    02:00 +29°C° 0.3 mm 4 mps 703 mmHg 47%
    03:00 +28°C° 0.3 mm 6 mps 704 mmHg 50%
    04:00 +28°C° 0.3 mm 8 mps 704 mmHg 53%
    05:00 +27°C° 0.3 mm 8 mps 705 mmHg 51%
    06:00 +26°C° 0.3 mm 9 mps 705 mmHg 49%
    07:00 +24°C° 0.3 mm 10 mps 706 mmHg 47%
    08:00 +26°C° 0 mm 9 mps 706 mmHg 42%
    09:00 +27°C° 0 mm 9 mps 706 mmHg 38%
    10:00 +28°C° 0 mm 8 mps 706 mmHg 33%
    11:00 +29°C° 0 mm 8 mps 706 mmHg 31%
    12:00 +31°C° 0 mm 8 mps 705 mmHg 30%
    13:00 +32°C° 0 mm 8 mps 704 mmHg 29%
    14:00 +32°C° 0 mm 8 mps 704 mmHg 30%
    15:00 +31°C° 0 mm 8 mps 704 mmHg 30%
    16:00 +31°C° 0 mm 8 mps 704 mmHg 31%
    17:00 +31°C° 0 mm 8 mps 705 mmHg 33%
    18:00 +29°C° 0 mm 7 mps 705 mmHg 35%
    19:00 +28°C° 0 mm 7 mps 706 mmHg 37%
    20:00 +27°C° 0 mm 7 mps 706 mmHg 38%
    21:00 +27°C° 0 mm 7 mps 707 mmHg 39%
    22:00 +26°C° 0 mm 7 mps 708 mmHg 41%
    23:00 +26°C° 0 mm 6 mps 708 mmHg 44%

    Tomorrow, 18 December, Tuesday

    Time Temperature Precipitation Wind Pressure Humidity
    00:00 +24°C° 0 mm 6 mps 707 mmHg 47%
    01:00 +23°C° 0 mm 5 mps 707 mmHg 50%
    02:00 +22°C° 0 mm 5 mps 707 mmHg 53%
    03:00 +22°C° 0 mm 5 mps 707 mmHg 56%
    04:00 +21°C° 0 mm 4 mps 707 mmHg 59%
    05:00 +22°C° 0 mm 4 mps 707 mmHg 57%
    06:00 +22°C° 0 mm 4 mps 708 mmHg 55%
    07:00 +23°C° 0 mm 5 mps 708 mmHg 53%
    08:00 +25°C° 0 mm 4 mps 708 mmHg 49%
    09:00 +26°C° 0 mm 4 mps 708 mmHg 45%
    10:00 +27°C° 0 mm 4 mps 707 mmHg 42%
    11:00 +27°C° 0 mm 3 mps 707 mmHg 40%
    12:00 +28°C° 0 mm 3 mps 706 mmHg 38%
    13:00 +29°C° 0 mm 2 mps 706 mmHg 37%
    14:00 +29°C° 0.2 mm 2 mps 705 mmHg 36%
    15:00 +29°C° 0.2 mm 2 mps 705 mmHg 35%
    16:00 +29°C° 0.2 mm 2 mps 705 mmHg 35%
    17:00 +29°C° 0.4 mm 2 mps 705 mmHg 36%
    18:00 +28°C° 0.4 mm 2 mps 705 mmHg 37%
    19:00 +28°C° 0.4 mm 2 mps 705 mmHg 38%
    20:00 +28°C° 0.4 mm 2 mps 706 mmHg 39%
    21:00 +28°C° 0.4 mm 2 mps 706 mmHg 39%
    22:00 +27°C° 0.4 mm 2 mps 706 mmHg 40%
    23:00 +27°C° 0.2 mm 2 mps 706 mmHg 41%

    Day after tomorrow, 19 December, Wednesday

    Time Temperature Precipitation Wind Pressure Humidity
    00:00 +27°C° 0.2 mm 2 mps 705 mmHg 42%
    01:00 +26°C° 0.2 mm 1 mps 705 mmHg 42%
    02:00 +26°C° 0 mm 2 mps 705 mmHg 43%
    03:00 +26°C° 0 mm 2 mps 704 mmHg 43%
    04:00 +25°C° 0 mm 2 mps 704 mmHg 44%
    05:00 +26°C° 0 mm 2 mps 704 mmHg 40%
    06:00 +27°C° 0 mm 2 mps 705 mmHg 37%
    07:00 +28°C° 0 mm 3 mps 705 mmHg 34%
    08:00 +30°C° 0.1 mm 2 mps 705 mmHg 31%
    09:00 +31°C° 0.1 mm 2 mps 704 mmHg 27%
    10:00 +32°C° 0.1 mm 2 mps 704 mmHg 24%
    11:00 +34°C° 0 mm 2 mps 703 mmHg 22%
    12:00 +35°C° 0 mm 3 mps 703 mmHg 20%
    13:00 +36°C° 0 mm 3 mps 702 mmHg 18%
    14:00 +37°C° 0 mm 3 mps 701 mmHg 17%
    15:00 +37°C° 0 mm 3 mps 701 mmHg 17%
    16:00 +37°C° 0 mm 3 mps 700 mmHg 16%
    17:00 +36°C° 0.2 mm 3 mps 700 mmHg 18%
    18:00 +35°C° 0.2 mm 3 mps 701 mmHg 20%
    19:00 +34°C° 0.2 mm 3 mps 701 mmHg 22%
    20:00 +33°C° 0.1 mm 3 mps 701 mmHg 25%
    21:00 +33°C° 0.1 mm 3 mps 702 mmHg 28%
    22:00 +31°C° 0.1 mm 3 mps 702 mmHg 31%
    23:00 +30°C° 0 mm 3 mps 702 mmHg 34%

    20 December, Thursday

    Time Temperature Precipitation Wind Pressure Humidity
    00:00 +29°C° 0 mm 3 mps 701 mmHg 37%
    01:00 +29°C° 0 mm 3 mps 701 mmHg 40%
    02:00 +27°C° 0.1 mm 4 mps 701 mmHg 46%
    03:00 +26°C° 0.1 mm 6 mps 701 mmHg 52%
    04:00 +24°C° 0.1 mm 7 mps 702 mmHg 58%
    05:00 +24°C° 0.2 mm 7 mps 702 mmHg 56%
    06:00 +26°C° 0.2 mm 7 mps 703 mmHg 54%
    07:00 +26°C° 0.2 mm 8 mps 704 mmHg 52%
    08:00 +28°C° 0.1 mm 7 mps 704 mmHg 45%
    09:00 +29°C° 0.1 mm 7 mps 703 mmHg 38%
    10:00 +30°C° 0.1 mm 6 mps 703 mmHg 31%
    11:00 +32°C° 0.1 mm 6 mps 703 mmHg 30%
    12:00 +33°C° 0.1 mm 5 mps 702 mmHg 29%
    13:00 +33°C° 0.1 mm 4 mps 701 mmHg 27%
    14:00 +34°C° 0.1 mm 5 mps 701 mmHg 27%
    15:00 +34°C° 0.1 mm 5 mps 701 mmHg 28%
    16:00 +34°C° 0.1 mm 5 mps 701 mmHg 28%
    17:00 +33°C° 0 mm 5 mps 701 mmHg 30%
    18:00 +32°C° 0 mm 5 mps 702 mmHg 32%
    19:00 +30°C° 0 mm 5 mps 703 mmHg 34%
    20:00 +30°C° 0 mm 4 mps 703 mmHg 35%
    21:00 +29°C° 0 mm 4 mps 704 mmHg 36%
    22:00 +28°C° 0 mm 4 mps 704 mmHg 37%
    23:00 +27°C° 0 mm 4 mps 704 mmHg 40%

    21 December, Friday

    Time Temperature Precipitation Wind Pressure Humidity
    00:00 +26°C° 0 mm 5 mps 704 mmHg 44%
    01:00 +25°C° 0 mm 5 mps 704 mmHg 48%
    02:00 +25°C° 0 mm 4 mps 704 mmHg 50%
    03:00 +23°C° 0 mm 4 mps 704 mmHg 52%
    04:00 +24°C° 0 mm 3 mps 704 mmHg 54%
    05:00 +24°C° 0 mm 3 mps 704 mmHg 52%
    06:00 +25°C° 0 mm 2 mps 704 mmHg 50%
    07:00 +26°C° 0 mm 2 mps 704 mmHg 48%
    08:00 +27°C° 0 mm 2 mps 704 mmHg 44%
    09:00 +29°C° 0 mm 2 mps 704 mmHg 39%
    10:00 +30°C° 0 mm 2 mps 703 mmHg 35%
    11:00 +33°C° 0 mm 3 mps 703 mmHg 32%
    12:00 +34°C° 0 mm 3 mps 702 mmHg 29%
    13:00 +35°C° 0 mm 3 mps 701 mmHg 27%
    14:00 +36°C° 0 mm 3 mps 701 mmHg 26%
    15:00 +36°C° 0 mm 3 mps 701 mmHg 25%
    16:00 +36°C° 0 mm 3 mps 700 mmHg 24%
    17:00 +36°C° 0.2 mm 3 mps 701 mmHg 25%
    18:00 +35°C° 0.2 mm 3 mps 701 mmHg 27%
    19:00 +34°C° 0.2 mm 3 mps 702 mmHg 28%
    20:00 +34°C° 0.2 mm 2 mps 702 mmHg 30%
    21:00 +32°C° 0.2 mm 2 mps 703 mmHg 32%
    22:00 +31°C° 0.2 mm 2 mps 703 mmHg 34%
    23:00 +31°C° 0.1 mm 2 mps 703 mmHg 37%

    22 December, Saturday

    Time Temperature Precipitation Wind Pressure Humidity
    00:00 +30°C° 0.1 mm 2 mps 703 mmHg 39%
    01:00 +29°C° 0.1 mm 2 mps 702 mmHg 42%
    02:00 +29°C° 0 mm 2 mps 702 mmHg 45%
    03:00 +29°C° 0 mm 2 mps 703 mmHg 47%
    04:00 +28°C° 0 mm 2 mps 703 mmHg 50%
    05:00 +29°C° 0 mm 3 mps 703 mmHg 47%
    06:00 +30°C° 0 mm 3 mps 704 mmHg 44%
    07:00 +31°C° 0 mm 3 mps 704 mmHg 41%
    08:00 +33°C° 0 mm 3 mps 704 mmHg 38%
    09:00 +34°C° 0 mm 2 mps 704 mmHg 34%
    10:00 +35°C° 0 mm 2 mps 703 mmHg 31%
    11:00 +36°C° 0 mm 2 mps 703 mmHg 29%
    12:00 +37°C° 0 mm 3 mps 702 mmHg 26%
    13:00 +38°C° 0 mm 3 mps 702 mmHg 24%
    14:00 +38°C° 0.2 mm 3 mps 701 mmHg 23%
    15:00 +39°C° 0.2 mm 3 mps 701 mmHg 23%
    16:00 +39°C° 0.2 mm 3 mps 701 mmHg 23%
    17:00 +38°C° 0.4 mm 3 mps 701 mmHg 26%
    18:00 +37°C° 0.4 mm 4 mps 702 mmHg 29%
    19:00 +36°C° 0.4 mm 4 mps 703 mmHg 32%
    20:00 +35°C° 0.7 mm 4 mps 703 mmHg 36%
    21:00 +34°C° 0.7 mm 4 mps 704 mmHg 39%
    22:00 +33°C° 0.7 mm 3 mps 704 mmHg 43%
    23:00 +31°C° 0.4 mm 3 mps 704 mmHg 44%
    Show more